Header for Extended Forecast Station List Page

Search by: ID | Name | Date | Parm | Value | Avg | % Avg
Sort by: ID | Name | Date | Parm | Value | Avg | % Avg

Enter search or view all records.

Click on id for station plot
#IDNameDateParmValueAvg% Avg
0LYDM8KOOTENAI-LIBBY DAM04-14-2014INFLOW (KAF)58975736103
1LEOI1KOOTENAI-AT LEONIA04-14-2014DISCHARGE (KAF)59265229113
2BFEI1KOOTENAI-AT BONNERS FERRY04-14-2014STAGE (FT)MMM
3FCFM8NF FLATHEAD-NEAR COLUMBIA FALLS04-14-2014DISCHARGE (KAF)17831568114
4WGCM8MF FLATHEAD-NEAR WEST GLACIER04-14-2014DISCHARGE (KAF)18751524123
5HHWM8SF FLATHEAD-HUNGRY HORSE DAM04-14-2014INFLOW (KAF)20461855110
6CFMM8FLATHEAD-AT COLUMBIA FALLS04-14-2014DISCHARGE (KAF)48124048119
7DLGM8CLARK FORK-AT DEER LODGE04-14-2014DISCHARGE (KAF)647388
8DRMM8CLARK FORK-NR DRUMMOND04-14-2014DISCHARGE (KAF)276MM
9RCCM8ROCK CREEK-NEAR CLINTON04-14-2014DISCHARGE (KAF)394252156
10BONM8BLACKFOOT-NEAR BONNER04-14-2014DISCHARGE (KAF)1180773153
11ABOM8CLARK FORK-ABOVE MISSOULA04-14-2014DISCHARGE (KAF)19281363141
12BITM8BITTERROOT-NEAR MISSOULA04-14-2014DISCHARGE (KAF)15481169132
13BELM8CLARK FORK-BELOW MISSOULA04-14-2014DISCHARGE (KAF)34762574135
14STRM8ST. REGIS-NEAR ST. REGIS04-14-2014DISCHARGE (KAF)254231110
15SRGM8CLARK FORK-AT ST REGIS04-14-2014DISCHARGE (KAF)43103435125
16KERM8FLATHEAD-KERR DAM04-14-2014INFLOW (KAF)58075044115
17NOXM8CLARK FORK-NOXON RAPIDS DAM04-14-2014INFLOW (KAF)99558534117
18CABI1CLARK FORK-CABINET GORGE DAM04-14-2014INFLOW (KAF)109719039121
19PRTI1PRIEST-NEAR PRIEST RIVER04-14-2014DISCHARGE (KAF)69572396
20ALFW1PEND OREILLE-ALBENI FALLS DAM04-14-2014INFLOW (KAF)1174210480112
21HOPI1PEND OREILLE-PEND OREILLE LAKE NR HOPE04-14-2014LAKE ELEVATION (FT)MMM
22COEI1COEUR D ALENE-COEUR D ALENE LAKE04-14-2014INFLOW (KAF)22762183104
23SPOW1SPOKANE-AT SPOKANE04-14-2014DISCHARGE (KAF)2337MM
24LLKW1SPOKANE-AT LONGLAKE04-14-2014INFLOW (KAF)2550268695
25SATI1ST MARIES-NEAR SANTA04-14-2014DISCHARGE (KAF)8010874
26SJMI1ST JOE-AT ST MARIES04-14-2014STAGE (FT)MMM
27CIBW1COLUMBIA-AT INTL BOUNDARY04-14-2014DISCHARGE (KAF)33265MM
28LAUW1KETTLE-AT LAURIER04-14-2014DISCHARGE (KAF)1524166092
29GCDW1COLUMBIA-GRAND COULEE DAM04-14-2014INFLOW (KAF)374104154890
30CHJW1COLUMBIA-CHIEF JOSEPH DAM04-14-2014INFLOW (KAF)3336031339106
31TONW1OKANOGAN-NEAR TONASKET04-14-2014DISCHARGE (KAF)14151404101
32PATW1METHOW-NEAR PATEROS04-14-2014DISCHARGE (KAF)828816101
33WELW1COLUMBIA-WELLS DAM04-14-2014INFLOW (KAF)3560433927105
34CHDW1CHELAN-LAKE CHELAN DAM04-14-2014INFLOW (KAF)94797198
35RRHW1COLUMBIA-ROCKY REACH DAM04-14-2014INFLOW (KAF)3633234468105
36ARDW1ENTIAT-NEAR ARDENVOIR04-14-2014DISCHARGE (KAF)208193108
37PESW1WENATCHEE-AT PESHASTIN04-14-2014DISCHARGE (KAF)13661365100
38WANW1COLUMBIA-WANAPUM DAM04-14-2014INFLOW (KAF)377004133191
39PRWW1COLUMBIA-PRIEST RAPIDS DAM04-14-2014INFLOW (KAF)377024213989
40KEDW1YAKIMA-KEECHELUS LAKE04-14-2014INFLOW (KAF)9710097
41KADW1KACHESS-KACHESS DAM04-14-2014INFLOW (KAF)859391
42EASW1YAKIMA-AT EASTON04-14-2014DISCHARGE (KAF)17292188
43CLUW1CLE ELUM-CLE ELUM LAKE04-14-2014INFLOW (KAF)369357103
44TNAW1TEANAWAY-BELOW FORKS04-14-2014DISCHARGE (KAF)929696
45UMTW1YAKIMA-AT UMTANUM04-14-2014DISCHARGE (KAF)78378999
46BUDW1BUMPING-BUMPING LAKE DAM04-14-2014INFLOW (KAF)7410869
47CLFW1NACHES-NEAR CLIFFDEL04-14-2014DISCHARGE (KAF)31633395
48RILW1TIETON-RIMROCK LAKE NEAR RIMROCK04-14-2014INFLOW (KAF)18218399
49NACW1NACHES-NEAR NACHES04-14-2014DISCHARGE (KAF)505465109
50PARW1YAKIMA-NEAR PARKER04-14-2014DISCHARGE (KAF)447409109
51KIOW1YAKIMA-AT KIONA04-14-2014DISCHARGE (KAF)71275994
52IPDI1HENRYS FORK-ISLAND PARK DAM04-14-2014INFLOW (KAF)17220684
53CHEI1FALLS-NEAR CHESTER04-14-2014DISCHARGE (KAF)338305111
54ANTI1HENRYS FORK-AT ST. ANTHONY04-14-2014DISCHARGE (KAF)621604103
55TEAI1TETON-NEAR ST. ANTHONY04-14-2014DISCHARGE (KAF)425338126
56REXI1HENRYS FORK-AT REXBURG04-14-2014DISCHARGE (KAF)765694110
57JLKW4SNAKE-JACKSON LAKE AT DAM04-14-2014INFLOW (KAF)996753132
58JKSW4SNAKE-NEAR JACKSON04-14-2014DISCHARGE (KAF)17951589113
59ALPW4SNAKE-NEAR ALPINE04-14-2014DISCHARGE (KAF)23232052113
60PLDI1SF SNAKE-PALISADES DAM04-14-2014INFLOW (KAF)32892938112
61HEII1SNAKE-NEAR HEISE04-14-2014DISCHARGE (KAF)31503036104
62RIDI1WILLOW CREEK-RIRIE DAM04-14-2014INFLOW (KAF)8338218
63SIFI1SNAKE-AB EAGLE ROCK NR IDAHO FALLS04-14-2014DISCHARGE (KAF)25572451104
64SHYI1SNAKE-NEAR SHELLEY04-14-2014DISCHARGE (KAF)23372245104
65SNAI1SNAKE-AT BLACKFOOT04-14-2014DISCHARGE (KAF)18001759102
66BFTI1SNAKE-NEAR BLACKFOOT04-14-2014DISCHARGE (KAF)17501651106
67PIHI1PORTNEUF-AT POCATELLO04-14-2014DISCHARGE (KAF)266738
68AFRI1SNAKE-AMERICAN FALLS RESERVOIR04-14-2014INFLOW (KAF)2234226998
69MILI1SNAKE-AT MILNER04-14-2014DISCHARGE (KAF)3129610
70HOTI1BRUNEAU-NEAR HOT SPRINGS04-14-2014DISCHARGE (KAF)7316345
71SWAI1SNAKE-BELOW SWAN FALLS04-14-2014DISCHARGE (KAF)1485222967
72HWRI1BIG LOST-AT HOWELL RANCH NEAR CHILLY04-14-2014DISCHARGE (KAF)8415853
73MACI1BIG LOST-MACKAY RESERVOIR NEAR MACKAY04-14-2014INFLOW (KAF)7515847
74HALI1BIG WOOD-AT HAILEY04-14-2014DISCHARGE (KAF)18022381
75MAGI1BIG WOOD-MAGIC DAM04-14-2014INFLOW (KAF)14120968
76LWRI1LITTLE WOOD-LITTLE WOOD DAM04-14-2014INFLOW (KAF)197028
77OWYO3OWYHEE-BELOW OWYHEE DAM04-14-2014INFLOW (KAF)5122723
78ARAI1SF BOISE-ANDERSON RANCH DAM04-14-2014INFLOW (KAF)35547275
79LUCI1BOISE-LUCKY PEAK DAM04-14-2014INFLOW (KAF)900MM
80BIGI1BOISE-AT GLENWOOD BRIDGE04-14-2014DISCHARGE (KAF)27644462
81PARI1BOISE-NEAR PARMA04-14-2014DISCHARGE (KAF)23739859
82WRMO3MALHEUR-WARM SPRINGS DAM04-14-2014INFLOW (KAF)132452
83BERO3MALHEUR-AGENCY VALLEY DAM04-14-2014INFLOW (KAF)113234
84BULO3BULLY CREEK-BULLY CREEK DAM04-14-2014INFLOW (KAF)1141
85VALO3MALHEUR-NEAR VALE04-14-2014DISCHARGE (KAF)0451
86CSDI1NF PAYETTE-CASCADE DAM04-14-2014INFLOW (KAF)43644997
87DEDI1DEADWOOD-NEAR LOWMAN04-14-2014INFLOW (KAF)10712884
88EMMI1PAYETTE-NEAR EMMETT04-14-2014DISCHARGE (KAF)920112082
89WSRI1WEISER-NEAR WEISER04-14-2014DISCHARGE (KAF)19330962
90WEII1SNAKE-AT WEISER04-14-2014DISCHARGE (KAF)2894441066
91BRNI1SNAKE-BROWNLEE DAM04-14-2014INFLOW (KAF)3291474769
92WHBI1SALMON-AT WHITEBIRD04-14-2014DISCHARGE (KAF)55885519101
93TRYO3GRANDE RONDE-TROY04-14-2014DISCHARGE (KAF)12251073114
94ANAW1SNAKE-NEAR ANATONE04-14-2014DISCHARGE (KAF)104661220386
95ORFI1CLEARWATER-AT OROFINO04-14-2014DISCHARGE (KAF)53184213126
96DWRI1NF CLEARWATER-DWORSHAK DAM04-14-2014INFLOW (KAF)27442403114
97SPDI1CLEARWATER-AT SPALDING04-14-2014DISCHARGE (KAF)72416299115
98LGDW1SNAKE-LOWER GRANITE DAM04-14-2014INFLOW (KAF)177051852096
99LGSW1SNAKE-LITTLE GOOSE DAM04-14-2014INFLOW (KAF)176971853395
100LMNW1SNAKE-LOWER MONUMENTAL DAM04-14-2014INFLOW (KAF)177481859295
101IHDW1SNAKE-ICE HARBOR DAM04-14-2014INFLOW (KAF)177541846496
102TCHW1WALLA WALLA-NEAR TOUCHET04-14-2014DISCHARGE (KAF)8483101
103MCDW1COLUMBIA-MCNARY DAM04-14-2014INFLOW (KAF)563536245690
104GIBO3UMATILLA-NEAR GIBBON04-14-2014DISCHARGE (KAF)515494
105PDTO3UMATILLA-AT PENDLETON04-14-2014DISCHARGE (KAF)8510086
106MYKO3MCKAY CREEK-NEAR PILOT ROCK04-14-2014DISCHARGE (KAF)1614120
107UMAO3UMATILLA-NEAR UMATILLA04-14-2014DISCHARGE (KAF)7752149
108MONO3NF JOHN DAY-AT MONUMENT04-14-2014DISCHARGE (KAF)20745446
109SERO3JOHN DAY-AT SERVICE CK04-14-2014DISCHARGE (KAF)32963352
110JDAO3COLUMBIA-JOHN DAY DAM04-14-2014INFLOW (KAF)577376422790
111MODO3DESCHUTES-AT MOODY NR BIGGS04-14-2014DISCHARGE (KAF)1222128295
112TDAO3COLUMBIA-THE DALLES DAM04-14-2014INFLOW (KAF)5798757554101
113PITW1KLICKITAT-NEAR PITT04-14-2014DISCHARGE (KAF)35642883
114HODO3HOOD-NEAR TUCKER BRIDGE04-14-2014DISCHARGE (KAF)15019178
115UNDW1WHITE SALMON-NEAR UNDERWOOD04-14-2014DISCHARGE (KAF)22629078
116BONO3COLUMBIA-BONNEVILLE DAM04-14-2014INFLOW (KAF)58741MM